YACHTS Weather Reports


time (UTC)temp
C
wind
direction
speed
KPH
gust
KPH
rain 1hr
cm
rain 24hr
cm
rain mn
cm
humidity
%
barometer
mb
20260831062450 11 0 0.0 0.0 0.00 0.03 0.03 91 1013.6
20260831061424 11 0 0.0 0.0 0.00 0.03 0.03 91 1013.7
20260831060911 11 0 0.0 0.0 0.00 0.03 0.03 91 1013.8
20260831060358 11 0 0.0 0.0 0.00 0.03 0.03 91 1013.8
20260831055845 11 0 0.0 0.0 0.00 0.03 0.03 91 1013.9
20260831054819 11 0 0.0 0.0 0.00 0.03 0.03 90 1014.0
20260831054306 11 0 0.0 0.0 0.00 0.03 0.03 90 1014.1
20260831053753 11 0 0.0 0.0 0.00 0.03 0.03 90 1014.2
20260831053240 12 0 0.0 0.0 0.00 0.03 0.03 90 1014.2
20260831052729 12 0 0.0 0.0 0.00 0.03 0.03 90 1014.3
20260831052214 12 0 0.0 0.0 0.00 0.03 0.03 90 1014.3
20260831051701 12 0 0.0 0.0 0.00 0.03 0.03 89 1014.3
20260831051148 12 0 0.0 0.0 0.00 0.03 0.03 89 1014.4
20260831050635 12 0 0.0 0.0 0.00 0.03 0.03 89 1014.4
20260831050122 12 0 0.0 0.0 0.00 0.03 0.03 89 1014.5
20260831045609 12 0 0.0 0.0 0.00 0.03 0.03 88 1014.5
20260831045056 12 0 0.0 0.0 0.00 0.03 0.03 88 1014.5
20260831044543 12 0 0.0 0.0 0.00 0.03 0.03 88 1014.5
20260831044030 12 0 0.0 0.0 0.00 0.03 0.03 87 1014.6
20260831043517 12 0 0.0 0.0 0.00 0.03 0.03 87 1014.6
20260831043004 12 0 0.0 0.0 0.00 0.03 0.03 87 1014.6
20260831042451 12 0 0.0 0.0 0.00 0.03 0.03 87 1014.7
20260831041938 13 0 0.0 0.0 0.00 0.03 0.03 86 1014.7
20260831041425 13 0 0.0 0.0 0.00 0.03 0.03 86 1014.7
20260831040912 13 0 0.0 0.0 0.00 0.03 0.03 86 1014.7
20260831040359 13 0 0.0 0.0 0.00 0.03 0.03 85 1014.8
20260831035846 13 0 0.0 0.0 0.00 0.03 0.03 85 1014.8
20260831035335 13 0 0.0 0.0 0.00 0.03 0.03 85 1014.7
20260831034820 14 0 0.0 0.0 0.00 0.03 0.03 84 1014.7
20260831034307 13 0 0.0 0.0 0.00 0.03 0.03 84 1014.7
20260831033754 14 0 0.0 0.0 0.00 0.03 0.03 84 1014.6
20260831033241 14 0 0.0 9.7 0.00 0.03 0.03 84 1014.6
20260831032728 14 0 0.0 9.7 0.00 0.03 0.03 84 1014.7
20260831032215 14 0 0.0 9.7 0.00 0.03 0.03 84 1014.7
20260831031702 14 39 0.0 11.3 0.00 0.03 0.03 83 1014.8
20260831031149 15 135 0.0 11.3 0.00 0.03 0.03 83 1014.8
20260831030636 15 0 0.0 11.3 0.00 0.03 0.03 83 1014.9
20260831030124 15 0 0.0 0.0 0.00 0.03 0.03 83 1014.9
20260831025610 15 0 0.0 0.0 0.00 0.03 0.03 83 1014.9
20260831024544 15 113 0.0 11.3 0.00 0.03 0.03 82 1014.9
20260831024031 15 15 3.2 11.3 0.00 0.03 0.03 82 1014.9
20260831023518 16 0 0.0 9.7 0.00 0.03 0.03 82 1014.9
20260831023005 16 0 3.2 17.7 0.00 0.03 0.03 82 1014.9
20260831022452 16 64 4.8 17.7 0.00 0.03 0.03 82 1014.9
20260831021939 16 0 4.8 17.7 0.00 0.03 0.03 81 1015.0
20260831021426 16 91 4.8 16.1 0.00 0.03 0.03 82 1015.1
20260831020913 16 50 8.0 24.1 0.00 0.03 0.03 81 1015.1
20260831020400 16 308 3.2 24.1 0.00 0.03 0.03 81 1015.1
20260831015846 16 100 4.8 24.1 0.00 0.03 0.03 81 1015.1
20260831015335 16 54 11.3 22.5 0.00 0.03 0.03 81 1015.2
20260831014820 16 329 8.0 22.5 0.00 0.03 0.03 81 1015.3
20260831013754 17 22 4.8 22.5 0.00 0.03 0.03 81 1015.4
20260831013241 17 161 4.8 22.5 0.00 0.03 0.03 81 1015.4
20260831012728 16 334 9.7 22.5 0.00 0.03 0.03 81 1015.5
20260831012216 16 169 4.8 25.7 0.00 0.03 0.03 81 1015.5
20260831011702 16 77 6.4 25.7 0.00 0.03 0.03 81 1015.6
20260831010636 17 70 1.6 24.1 0.00 0.03 0.03 80 1015.8
20260831010123 17 36 9.7 24.1 0.00 0.03 0.03 80 1015.9
20260831005610 17 4 9.7 24.1 0.00 0.03 0.03 80 1015.9
20260831005057 17 152 9.7 16.1 0.00 0.03 0.03 79 1016.0
20260831004544 17 26 11.3 20.9 0.00 0.03 0.03 79 1016.1
20260831004031 17 40 6.4 20.9 0.00 0.03 0.03 79 1016.2
20260831003518 17 336 8.0 20.9 0.00 0.03 0.03 79 1016.2
20260831003005 17 320 9.7 20.9 0.00 0.03 0.03 78 1016.3
20260831002452 17 60 11.3 20.9 0.00 0.03 0.03 77 1016.3
20260831001939 17 0 6.4 20.9 0.00 0.03 0.03 78 1016.3
20260831001426 17 127 6.4 17.7 0.00 0.03 0.03 78 1016.3
20260831000913 17 96 9.7 16.1 0.00 0.03 0.03 78 1016.4
20260831000402 17 285 12.9 25.7 0.00 0.03 0.03 78 1016.6
20260830234821 17 47 3.2 17.7 0.00 0.03 0.03 77 1016.6
20260830234310 17 310 8.0 22.5 0.00 0.03 0.03 76 1016.7
20260830233755 17 81 6.4 22.5 0.00 0.03 0.03 76 1016.7
20260830233242 17 135 11.3 22.5 0.00 0.03 0.03 76 1016.8
20260830232729 17 106 9.7 17.7 0.00 0.03 0.03 76 1016.9
20260830232217 17 36 3.2 27.4 0.00 0.03 0.03 77 1016.9
20260830231703 17 28 8.0 27.4 0.00 0.03 0.03 77 1017.1
20260830230637 17 357 8.0 25.7 0.00 0.03 0.03 77 1017.2
20260830230124 17 110 11.3 25.7 0.00 0.03 0.03 77 1017.2
20260830225058 17 53 3.2 24.1 0.00 0.03 0.03 77 1017.3
20260830224545 17 57 11.3 22.5 0.00 0.03 0.03 77 1017.3
20260830223519 17 40 8.0 22.5 0.00 0.03 0.03 76 1017.5
20260830223006 17 46 9.7 19.3 0.00 0.03 0.03 76 1017.6
20260830222453 17 12 8.0 22.5 0.00 0.03 0.03 76 1017.7
20260830221940 17 43 9.7 22.5 0.00 0.03 0.03 75 1017.7
20260830221427 18 109 1.6 22.5 0.00 0.03 0.03 75 1017.8
20260830220401 17 145 6.4 22.5 0.00 0.03 0.03 75 1018.0
20260830215335 18 352 9.7 17.7 0.00 0.03 0.03 75 1018.2
20260830214822 18 28 8.0 25.7 0.00 0.03 0.03 75 1018.2
20260830214310 17 47 11.3 25.7 0.00 0.03 0.03 75 1018.3
20260830213757 17 67 11.3 25.7 0.00 0.03 0.03 75 1018.3
20260830213243 17 71 1.6 19.3 0.00 0.03 0.03 76 1018.4
20260830212730 17 9 9.7 19.3 0.00 0.03 0.03 76 1018.5
20260830212217 17 357 4.8 19.3 0.00 0.03 0.03 77 1018.6
20260830211704 17 107 6.4 19.3 0.00 0.03 0.03 77 1018.6
20260830211151 17 319 8.0 19.3 0.00 0.03 0.03 78 1018.7
20260830210638 17 357 1.6 22.5 0.00 0.03 0.03 78 1018.7
20260830210125 17 40 8.0 22.5 0.00 0.03 0.03 78 1018.6
20260830205612 17 284 3.2 22.5 0.00 0.03 0.03 79 1018.7
20260830205059 17 299 11.3 22.5 0.00 0.03 0.03 79 1018.7
20260830204546 17 56 4.8 22.5 0.00 0.03 0.03 79 1018.8
20260830204033 17 357 8.0 22.5 0.00 0.03 0.03 79 1018.8
20260830203520 17 75 4.8 16.1 0.00 0.03 0.03 78 1018.9
20260830203007 17 119 1.6 14.5 0.00 0.03 0.03 79 1018.9
20260830202454 17 196 1.6 14.5 0.00 0.03 0.03 80 1018.9
20260830201941 17 319 9.7 20.9 0.00 0.03 0.03 78 1018.9
20260830201428 17 79 8.0 20.9 0.00 0.03 0.03 79 1018.9
20260830200915 17 7 4.8 20.9 0.00 0.03 0.03 79 1018.9
20260830200402 16 345 6.4 12.9 0.00 0.03 0.03 80 1018.9
20260830195849 17 25 4.8 20.9 0.00 0.03 0.03 79 1019.0
20260830195337 17 40 8.0 20.9 0.00 0.03 0.03 79 1019.0
20260830194823 17 4 9.7 20.9 0.00 0.03 0.03 79 1019.0
20260830194310 17 72 6.4 16.1 0.00 0.03 0.03 78 1019.0
20260830193757 17 324 4.8 16.1 0.00 0.03 0.03 79 1019.1
20260830193244 17 15 6.4 16.1 0.00 0.03 0.03 79 1019.2
20260830192731 17 37 4.8 14.5 0.00 0.03 0.03 79 1019.2
20260830192218 17 319 8.0 14.5 0.00 0.03 0.03 79 1019.3
20260830191705 17 292 6.4 16.1 0.00 0.03 0.03 80 1019.4
20260830191152 17 303 4.8 16.1 0.00 0.03 0.03 81 1019.3
20260830190639 17 298 9.7 16.1 0.00 0.03 0.03 80 1019.3
20260830190126 17 60 3.2 16.1 0.00 0.03 0.03 82 1019.3
20260830185613 17 319 6.4 14.5 0.00 0.03 0.03 82 1019.4
20260830185100 17 21 6.4 14.5 0.00 0.03 0.03 84 1019.5
20260830184547 17 51 6.4 14.5 0.00 0.03 0.03 85 1019.6
20260830184034 17 270 8.0 14.5 0.00 0.03 0.03 85 1019.6
20260830183521 17 0 4.8 14.5 0.00 0.03 0.03 87 1019.6
20260830183008 16 326 8.0 16.1 0.00 0.03 0.03 87 1019.6
20260830182455 16 295 8.0 16.1 0.00 0.03 0.03 87 1019.6
20260830181942 16 289 6.4 16.1 0.00 0.03 0.03 88 1019.7
20260830180916 16 303 4.8 16.1 0.00 0.03 0.03 89 1019.6
20260830180403 16 316 8.0 14.5 0.00 0.03 0.03 90 1019.7
20260830175850 16 316 8.0 14.5 0.00 0.03 0.03 90 1019.7
20260830175337 16 305 3.2 14.5 0.00 0.03 0.03 91 1019.7
20260830174824 16 331 3.2 14.5 0.00 0.03 0.03 91 1019.7
20260830174311 16 12 8.0 12.9 0.00 0.03 0.03 91 1019.7
20260830173758 15 354 3.2 12.9 0.00 0.03 0.03 91 1019.7
20260830173245 15 323 3.2 12.9 0.00 0.03 0.03 92 1019.7
20260830172732 14 302 6.4 9.7 0.00 0.03 0.03 92 1019.8
20260830172219 14 271 6.4 9.7 0.00 0.03 0.03 92 1019.8
20260830171706 14 315 3.2 11.3 0.00 0.03 0.03 93 1019.8
20260830171153 14 0 0.0 11.3 0.00 0.03 0.03 93 1019.9
20260830170640 13 309 0.0 11.3 0.00 0.03 0.03 93 1020.0
20260830170127 13 294 8.0 11.3 0.00 0.03 0.03 93 1019.9
20260830165614 13 0 0.0 0.0 0.00 0.03 0.03 93 1019.9
20260830165101 12 0 0.0 0.0 0.00 0.03 0.03 94 1020.0
20260830164548 12 0 0.0 0.0 0.00 0.03 0.03 94 1020.0
20260830164035 12 0 0.0 0.0 0.00 0.03 0.03 94 1020.0
20260830163522 12 0 0.0 0.0 0.00 0.03 0.03 94 1020.0
20260830163009 12 0 0.0 0.0 0.00 0.03 0.03 94 1020.1
20260830162456 12 0 0.0 0.0 0.00 0.03 0.03 94 1020.1
20260830161943 12 0 0.0 0.0 0.00 0.03 0.03 94 1020.1
20260830161430 11 0 0.0 0.0 0.00 0.03 0.03 95 1020.2
20260830160917 11 0 0.0 0.0 0.03 0.03 0.03 95 1020.2
20260830160404 11 0 0.0 0.0 0.03 0.03 0.03 95 1020.2
20260830155851 11 0 0.0 0.0 0.03 0.03 0.03 95 1020.2
20260830155338 11 0 0.0 0.0 0.03 0.03 0.03 95 1020.2
20260830154825 11 0 0.0 0.0 0.03 0.03 0.03 95 1020.1
20260830154312 11 0 0.0 0.0 0.03 0.03 0.03 95 1020.1
20260830153759 11 0 0.0 0.0 0.03 0.03 0.03 95 1020.1
20260830153246 11 0 0.0 0.0 0.03 0.03 0.03 95 1020.1
20260830152733 10 0 0.0 0.0 0.03 0.03 0.03 95 1020.2
20260830152220 10 0 0.0 0.0 0.03 0.03 0.03 96 1020.2
20260830151707 10 0 0.0 0.0 0.03 0.03 0.03 96 1020.2
20260830151154 10 0 0.0 0.0 0.03 0.03 0.03 96 1020.2
20260830150641 10 0 0.0 0.0 0.00 0.03 0.03 96 1020.3
20260830150128 10 0 0.0 0.0 0.00 0.00 0.00 96 1020.3
20260830145615 9 0 0.0 0.0 0.00 0.00 0.00 96 1020.3
20260830145102 9 0 0.0 0.0 0.00 0.00 0.00 95 1020.3
20260830144549 9 0 0.0 0.0 0.00 0.00 0.00 96 1020.4
20260830144036 9 0 0.0 0.0 0.00 0.00 0.00 96 1020.4
20260830143523 8 0 0.0 0.0 0.00 0.00 0.00 96 1020.4
20260830143010 8 0 0.0 0.0 0.00 0.00 0.00 96 1020.3
20260830142457 8 0 0.0 0.0 0.00 0.00 0.00 95 1020.2
20260830141944 8 0 0.0 0.0 0.00 0.00 0.00 96 1020.2
20260830141431 8 0 0.0 0.0 0.00 0.00 0.00 95 1020.1
20260830140918 8 0 0.0 0.0 0.00 0.00 0.00 95 1020.1
20260830140405 9 0 0.0 0.0 0.00 0.00 0.00 95 1020.2
20260830135852 9 0 0.0 0.0 0.00 0.10 0.00 95 1020.2
20260830135339 9 0 0.0 0.0 0.00 0.10 0.00 95 1020.2
20260830134313 9 0 0.0 0.0 0.00 0.10 0.00 95 1020.2
20260830133800 9 0 0.0 0.0 0.00 0.10 0.00 95 1020.1
20260830133247 9 0 0.0 0.0 0.00 0.10 0.00 95 1020.1
20260830132734 9 0 0.0 0.0 0.00 0.10 0.00 95 1020.1
20260830132221 9 0 0.0 0.0 0.00 0.10 0.00 95 1020.0
20260830131708 9 0 0.0 0.0 0.00 0.10 0.00 95 1020.0
20260830131155 9 0 0.0 0.0 0.00 0.10 0.00 95 1020.1
20260830130642 9 0 0.0 0.0 0.00 0.10 0.00 95 1020.0
20260830130129 9 0 0.0 0.0 0.00 0.10 0.00 95 1020.1
20260830125615 9 0 0.0 0.0 0.00 0.10 0.00 95 1020.1
20260830125103 9 0 0.0 0.0 0.00 0.10 0.00 95 1020.1
20260830124036 9 0 0.0 0.0 0.00 0.10 0.00 95 1020.0
20260830123523 10 0 0.0 0.0 0.00 0.10 0.00 95 1019.9
20260830123011 10 0 0.0 0.0 0.00 0.10 0.00 95 1019.8
20260830122457 10 0 0.0 0.0 0.00 0.10 0.00 95 1019.8
20260830121945 10 0 0.0 0.0 0.00 0.10 0.00 95 1019.8
20260830121431 10 0 0.0 0.0 0.00 0.10 0.00 95 1019.8
20260830120918 10 0 0.0 0.0 0.00 0.10 0.00 95 1019.8
20260830120405 10 0 0.0 0.0 0.00 0.10 0.00 95 1019.8
20260830115853 10 0 0.0 0.0 0.00 0.10 0.00 94 1019.8
20260830115339 10 0 0.0 0.0 0.00 0.10 0.00 95 1019.8
20260830114828 10 0 0.0 0.0 0.00 0.10 0.00 95 1019.8
20260830114313 10 0 0.0 0.0 0.00 0.10 0.00 94 1019.7
20260830113800 10 0 0.0 0.0 0.00 0.10 0.00 94 1019.7
20260830113247 10 0 0.0 0.0 0.00 0.10 0.00 94 1019.6
20260830112734 10 0 0.0 0.0 0.00 0.10 0.00 94 1019.6
20260830112222 10 0 0.0 0.0 0.00 0.10 0.00 94 1019.6
20260830111708 10 0 0.0 0.0 0.00 0.10 0.00 94 1019.6
20260830111155 10 0 0.0 0.0 0.00 0.10 0.00 94 1019.6
20260830110642 10 0 0.0 0.0 0.00 0.10 0.00 94 1019.7
20260830110129 10 0 0.0 0.0 0.00 0.10 0.00 94 1019.7
20260830105617 10 0 0.0 0.0 0.00 0.10 0.00 94 1019.7
20260830105103 10 0 0.0 0.0 0.00 0.10 0.00 94 1019.7
20260830104037 10 0 0.0 0.0 0.00 0.10 0.00 94 1019.7
20260830103524 10 0 0.0 0.0 0.00 0.10 0.00 94 1019.8
20260830103012 10 0 0.0 0.0 0.00 0.10 0.00 94 1019.7
20260830102458 10 0 0.0 0.0 0.00 0.10 0.00 93 1019.7
20260830101945 10 0 0.0 0.0 0.00 0.10 0.00 94 1019.7
20260830101432 11 0 0.0 0.0 0.00 0.10 0.00 94 1019.8
20260830100919 11 0 0.0 0.0 0.00 0.10 0.00 94 1019.8
20260830100406 11 0 0.0 0.0 0.00 0.10 0.00 94 1019.8
20260830095853 11 0 0.0 0.0 0.00 0.10 0.00 94 1019.8
20260830095340 11 0 0.0 0.0 0.00 0.10 0.00 94 1019.8
20260830094829 11 0 0.0 0.0 0.00 0.10 0.00 94 1019.8
20260830094314 11 0 0.0 0.0 0.00 0.10 0.00 94 1019.8
20260830093801 11 0 0.0 0.0 0.00 0.10 0.00 94 1019.7
20260830093248 11 0 0.0 0.0 0.00 0.10 0.00 94 1019.7
20260830092735 11 0 0.0 0.0 0.00 0.10 0.00 93 1019.8
20260830091709 11 0 0.0 0.0 0.00 0.10 0.00 93 1019.7
20260830091157 11 0 0.0 0.0 0.00 0.10 0.00 93 1019.7
20260830090643 11 0 0.0 0.0 0.00 0.10 0.00 93 1019.7
20260830090130 11 0 0.0 0.0 0.00 0.10 0.00 93 1019.7
20260830085617 11 0 0.0 0.0 0.00 0.10 0.00 93 1019.7
20260830085104 11 0 0.0 0.0 0.00 0.10 0.00 93 1019.7
20260830084551 11 0 0.0 0.0 0.00 0.10 0.00 93 1019.7
20260830084040 11 0 0.0 0.0 0.00 0.10 0.00 93 1019.8
20260830083525 11 0 0.0 0.0 0.00 0.10 0.00 93 1019.8
20260830083014 11 0 0.0 0.0 0.00 0.10 0.00 93 1019.8
20260830082459 11 0 0.0 0.0 0.00 0.10 0.00 93 1019.8
20260830081434 11 0 0.0 0.0 0.00 0.10 0.00 93 1019.8
20260830080920 11 0 0.0 0.0 0.00 0.10 0.00 93 1019.8
20260830080407 11 0 0.0 0.0 0.00 0.10 0.00 93 1019.8
20260830075854 11 0 0.0 0.0 0.00 0.10 0.00 93 1019.8
20260830075341 11 0 0.0 0.0 0.00 0.10 0.10 93 1019.8
20260830074828 11 0 0.0 0.0 0.00 0.10 0.10 92 1019.8
20260830074315 11 0 0.0 0.0 0.00 0.10 0.10 92 1019.9
20260830073802 11 0 0.0 0.0 0.00 0.10 0.10 93 1019.9
20260830073249 11 0 0.0 0.0 0.00 0.10 0.10 92 1019.8
20260830072736 11 0 0.0 0.0 0.00 0.10 0.10 92 1019.9
20260830072223 11 0 0.0 0.0 0.00 0.10 0.10 92 1019.8
20260830071710 11 0 0.0 0.0 0.00 0.10 0.10 92 1019.8
20260830071157 11 0 0.0 0.0 0.00 0.10 0.10 92 1019.8
20260830070644 11 0 0.0 0.0 0.00 0.10 0.10 92 1019.8
20260830070132 11 0 0.0 0.0 0.00 0.10 0.10 92 1019.8
20260830065618 11 0 0.0 0.0 0.00 0.10 0.10 92 1019.8
20260830065105 11 0 0.0 0.0 0.00 0.10 0.10 92 1019.8
20260830064552 11 0 0.0 0.0 0.00 0.10 0.10 92 1019.8
20260830064039 11 0 0.0 0.0 0.00 0.10 0.10 92 1019.8
20260830063526 12 0 0.0 0.0 0.00 0.10 0.10 91 1019.8
20260830063013 11 0 0.0 0.0 0.00 0.10 0.10 92 1019.8